Погода в Калемьо

Мьянма     23°11′30″N   94°03′43″E
темп.,
°C
ветер,
м/с
пор.,
м/с
влажн.,
%
обл.,
%
осадки,
мм/ч
давл.,
гПа
погр.,
м
18 апреля, вс
вс1800:30+23зсз22450 0.0 101232
03:30+21з11550 0.0 101220
06:30+21зюз11530 0.0 101340
09:30+30в32320 0.0 1013976
12:30+35в362077 0.0 10093144
15:30+35ссз552199 0.0 10063589
18:30+29ссз23334 0.0 100566
21:30+25з22399 0.0 100936
19 апреля, пн
пн1900:30+25зсз2446100 0.0 1009105
03:30+23з22540 0.0 100749
06:30+23зюз22480 0.0 100847
09:30+34в25230 0.0 10092488
12:30+37сз141547 0.0 10053921
15:30+38з66122 0.0 10024408
18:30+32зсз34230 0.0 100373
21:30+26з23410 0.0 100681
20 апреля, вт
вт2000:30+24з22470 0.0 100646
03:30+23зсз21440 0.0 100629
06:30+23з11440 0.0 100940
09:30+32в33260 0.0 10101287
12:30+39в261257 0.0 10064028
15:30+39зсз551020 0.0 10024386
18:30+33зсз37190 0.0 1003178
21:30+27з33320 0.0 100665
21 апреля, ср
ср2100:30+25з22410 0.0 100747
03:30+24зсз11390 0.0 100729
06:30+24з21360 0.0 100940
09:30+34вюв33190 0.0 10101452
12:30+40вюв371238 0.0 10064146
15:30+40зсз341130 0.0 10034500
18:30+34сз49183 0.0 1003399
21:30+28з33332 0.0 100658
22 апреля, чт
чт2200:30+26з22400 0.0 100752
03:30+25з22420 0.0 100656
06:30+25з22370 0.0 100849
09:30+36вюв33160 0.0 10081818
12:30+41в35113 0.0 10054092
15:30+41зсз441113 0.0 10014504
18:30+35зсз371867 0.0 1001201
21:30+30з3431100 0.0 100576